| time (UTC) | temp C | wind direction | speed KPH | gust KPH | rain 1hr cm | rain 24hr cm | rain mn cm | humidity % | barometer mb |
| 20260505040246 | 23 | 124 | 17.7 | 20.9 | 0.00 | 0.00 | 0.00 | ||
| 20260505035846 | 23 | 193 | 19.3 | 16.1 | 0.00 | 0.00 | 0.00 | ||
| 20260505035744 | 23 | 193 | 19.3 | 16.1 | 0.00 | 0.00 | 0.00 | ||
| 20260505035359 | 23 | 170 | 17.7 | 22.5 | 0.00 | 0.00 | 0.00 | ||
| 20260505035244 | 23 | 170 | 17.7 | 22.5 | 0.00 | 0.00 | 0.00 | ||
| 20260505034745 | 24 | 165 | 17.7 | 16.1 | 0.00 | 0.00 | 0.00 | ||
| 20260505034242 | 23 | 210 | 17.7 | 22.5 | 0.00 | 0.00 | 0.00 | ||
| 20260505034002 | 24 | 149 | 19.3 | 16.1 | 0.00 | 0.00 | 0.00 | ||
| 20260505033743 | 24 | 149 | 19.3 | 16.1 | 0.00 | 0.00 | 0.00 | ||
| 20260505033243 | 24 | 162 | 17.7 | 24.1 | 0.00 | 0.00 | 0.00 | ||
| 20260505032741 | 24 | 186 | 19.3 | 22.5 | 0.00 | 0.00 | 0.00 | ||
| 20260505032241 | 24 | 160 | 19.3 | 17.7 | 0.00 | 0.00 | 0.00 | ||
| 20260505031742 | 24 | 184 | 17.7 | 11.3 | 0.00 | 0.00 | 0.00 | ||
| 20260505031239 | 24 | 172 | 19.3 | 16.1 | 0.00 | 0.00 | 0.00 | ||
| 20260505030740 | 25 | 158 | 17.7 | 20.9 | 0.00 | 0.00 | 0.00 | ||
| 20260505030240 | 25 | 193 | 14.5 | 14.5 | 0.00 | 0.00 | 0.00 | ||
| 20260505025738 | 25 | 146 | 12.9 | 12.9 | 0.00 | 0.00 | 0.00 | ||
| 20260505025238 | 25 | 191 | 16.1 | 12.9 | 0.00 | 0.00 | 0.00 | ||
| 20260505024739 | 25 | 184 | 20.9 | 17.7 | 0.00 | 0.00 | 0.00 | ||
| 20260505024236 | 25 | 174 | 14.5 | 12.9 | 0.00 | 0.00 | 0.00 | ||
| 20260505023737 | 25 | 190 | 16.1 | 12.9 | 0.00 | 0.00 | 0.00 | ||
| 20260505023237 | 25 | 167 | 16.1 | 19.3 | 0.00 | 0.00 | 0.00 | ||
| 20260505022734 | 25 | 190 | 14.5 | 11.3 | 0.00 | 0.00 | 0.00 | ||
| 20260505022235 | 25 | 176 | 16.1 | 22.5 | 0.00 | 0.00 | 0.00 | ||
| 20260505021735 | 25 | 148 | 22.5 | 19.3 | 0.00 | 0.00 | 0.00 | ||
| 20260505021233 | 26 | 173 | 16.1 | 17.7 | 0.00 | 0.00 | 0.00 | ||
| 20260505020733 | 26 | 155 | 16.1 | 17.7 | 0.00 | 0.00 | 0.00 | ||
| 20260505020234 | 26 | 162 | 19.3 | 17.7 | 0.00 | 0.00 | 0.00 | ||
| 20260505015731 | 26 | 174 | 14.5 | 24.1 | 0.00 | 0.00 | 0.00 | ||
| 20260505015232 | 26 | 158 | 12.9 | 14.5 | 0.00 | 0.00 | 0.00 | ||
| 20260505014732 | 26 | 172 | 16.1 | 14.5 | 0.00 | 0.00 | 0.00 | ||
| 20260505014230 | 26 | 177 | 16.1 | 20.9 | 0.00 | 0.00 | 0.00 | ||
| 20260505013730 | 26 | 177 | 12.9 | 11.3 | 0.00 | 0.00 | 0.00 | ||
| 20260505013231 | 26 | 169 | 12.9 | 11.3 | 0.00 | 0.00 | 0.00 | ||
| 20260505012728 | 26 | 143 | 14.5 | 19.3 | 0.00 | 0.00 | 0.00 | ||
| 20260505012229 | 27 | 172 | 16.1 | 16.1 | 0.00 | 0.00 | 0.00 | ||
| 20260505011729 | 27 | 197 | 16.1 | 14.5 | 0.00 | 0.00 | 0.00 | ||
| 20260505011227 | 27 | 184 | 14.5 | 12.9 | 0.00 | 0.00 | 0.00 | ||
| 20260505010227 | 28 | 186 | 16.1 | 11.3 | 0.00 | 0.00 | 0.00 | ||
| 20260505005226 | 28 | 212 | 19.3 | 16.1 | 0.00 | 0.00 | 0.00 | ||
| 20260505004726 | 28 | 187 | 17.7 | 19.3 | 0.00 | 0.00 | 0.00 | ||
| 20260505004224 | 28 | 183 | 19.3 | 22.5 | 0.00 | 0.00 | 0.00 | ||
| 20260505003724 | 28 | 190 | 20.9 | 22.5 | 0.00 | 0.00 | 0.00 | ||
| 20260505003225 | 28 | 201 | 12.9 | 14.5 | 0.00 | 0.00 | 0.00 | ||
| 20260505002722 | 28 | 162 | 14.5 | 20.9 | 0.00 | 0.00 | 0.00 | ||
| 20260505002223 | 29 | 188 | 16.1 | 22.5 | 0.00 | 0.00 | 0.00 | ||
| 20260505001723 | 29 | 208 | 14.5 | 17.7 | 0.00 | 0.00 | 0.00 | ||
| 20260505001221 | 29 | 173 | 16.1 | 17.7 | 0.00 | 0.00 | 0.00 | ||
| 20260505000721 | 29 | 207 | 16.1 | 17.7 | 0.00 | 0.00 | 0.00 | ||
| 20260505000221 | 30 | 198 | 17.7 | 14.5 | 0.00 | 0.00 | 0.00 | ||
| 20260504235219 | 30 | 204 | 19.3 | 17.7 | 0.00 | 0.00 | 0.00 | ||
| 20260504234720 | 30 | 215 | 16.1 | 9.7 | 0.00 | 0.00 | 0.00 | ||
| 20260504234217 | 30 | 180 | 19.3 | 16.1 | 0.00 | 0.00 | 0.00 | ||
| 20260504233718 | 31 | 208 | 14.5 | 17.7 | 0.00 | 0.00 | 0.00 | ||
| 20260504233218 | 31 | 158 | 24.1 | 25.7 | 0.00 | 0.00 | 0.00 | ||
| 20260504232716 | 31 | 179 | 19.3 | 25.7 | 0.00 | 0.00 | 0.00 | ||
| 20260504232216 | 31 | 203 | 25.7 | 25.7 | 0.00 | 0.00 | 0.00 | ||
| 20260504231716 | 31 | 152 | 14.5 | 12.9 | 0.00 | 0.00 | 0.00 | ||
| 20260504231214 | 31 | 208 | 20.9 | 14.5 | 0.00 | 0.00 | 0.00 | ||
| 20260504230714 | 31 | 180 | 20.9 | 14.5 | 0.00 | 0.00 | 0.00 | ||
| 20260504230214 | 31 | 184 | 20.9 | 29.0 | 0.00 | 0.00 | 0.00 | ||
| 20260504225712 | 31 | 173 | 22.5 | 25.7 | 0.00 | 0.00 | 0.00 | ||
| 20260504225212 | 32 | 174 | 24.1 | 19.3 | 0.00 | 0.00 | 0.00 | ||
| 20260504224712 | 32 | 193 | 22.5 | 22.5 | 0.00 | 0.00 | 0.00 | ||
| 20260504224210 | 31 | 221 | 24.1 | 27.4 | 0.00 | 0.00 | 0.00 | ||
| 20260504223710 | 32 | 180 | 14.5 | 16.1 | 0.00 | 0.00 | 0.00 | ||
| 20260504223211 | 32 | 191 | 25.7 | 24.1 | 0.00 | 0.00 | 0.00 | ||
| 20260504222708 | 32 | 203 | 20.9 | 16.1 | 0.00 | 0.00 | 0.00 | ||
| 20260504222208 | 32 | 187 | 20.9 | 22.5 | 0.00 | 0.00 | 0.00 | ||
| 20260504221709 | 31 | 180 | 19.3 | 20.9 | 0.00 | 0.00 | 0.00 | ||
| 20260504221206 | 32 | 160 | 20.9 | 22.5 | 0.00 | 0.00 | 0.00 | ||
| 20260504220707 | 32 | 187 | 24.1 | 22.5 | 0.00 | 0.00 | 0.00 | ||
| 20260504220207 | 32 | 179 | 22.5 | 24.1 | 0.00 | 0.00 | 0.00 | ||
| 20260504215705 | 32 | 214 | 17.7 | 19.3 | 0.00 | 0.00 | 0.00 | ||
| 20260504215205 | 32 | 188 | 22.5 | 17.7 | 0.00 | 0.00 | 0.00 | ||
| 20260504214706 | 32 | 207 | 20.9 | 17.7 | 0.00 | 0.00 | 0.00 | ||
| 20260504214203 | 32 | 155 | 20.9 | 25.7 | 0.00 | 0.00 | 0.00 | ||
| 20260504213703 | 32 | 149 | 17.7 | 14.5 | 0.00 | 0.00 | 0.00 | ||
| 20260504213204 | 32 | 193 | 16.1 | 25.7 | 0.00 | 0.00 | 0.00 | ||
| 20260504212701 | 32 | 170 | 20.9 | 11.3 | 0.00 | 0.00 | 0.00 | ||
| 20260504212201 | 32 | 184 | 19.3 | 19.3 | 0.00 | 0.00 | 0.00 | ||
| 20260504211702 | 32 | 204 | 22.5 | 19.3 | 0.00 | 0.00 | 0.00 | ||
| 20260504211159 | 32 | 169 | 24.1 | 19.3 | 0.00 | 0.00 | 0.00 | ||
| 20260504210659 | 32 | 191 | 19.3 | 20.9 | 0.00 | 0.00 | 0.00 | ||
| 20260504210200 | 32 | 176 | 20.9 | 27.4 | 0.00 | 0.00 | 0.00 | ||
| 20260504205657 | 32 | 160 | 20.9 | 22.5 | 0.00 | 0.00 | 0.00 | ||
| 20260504205158 | 32 | 166 | 19.3 | 20.9 | 0.00 | 0.00 | 0.00 | ||
| 20260504204658 | 32 | 198 | 20.9 | 19.3 | 0.00 | 0.00 | 0.00 | ||
| 20260504204155 | 32 | 208 | 20.9 | 17.7 | 0.00 | 0.00 | 0.00 | ||
| 20260504203656 | 32 | 201 | 17.7 | 16.1 | 0.00 | 0.00 | 0.00 | ||
| 20260504203156 | 32 | 219 | 16.1 | 16.1 | 0.00 | 0.00 | 0.00 | ||
| 20260504202654 | 32 | 201 | 17.7 | 12.9 | 0.00 | 0.00 | 0.00 | ||
| 20260504202153 | 32 | 125 | 14.5 | 20.9 | 0.00 | 0.00 | 0.00 | ||
| 20260504201653 | 32 | 167 | 22.5 | 22.5 | 0.00 | 0.00 | 0.00 | ||
| 20260504201418 | 25 | 195 | 20.9 | 22.5 | 0.00 | 0.00 | 0.00 | ||
| 20260504201151 | 32 | 173 | 12.9 | 19.3 | 0.00 | 0.00 | 0.00 | ||
| 20260504200651 | 32 | 176 | 16.1 | 14.5 | 0.00 | 0.00 | 0.00 | ||
| 20260504200151 | 32 | 158 | 16.1 | 9.7 | 0.00 | 0.00 | 0.00 | ||
| 20260504195649 | 32 | 181 | 22.5 | 11.3 | 0.00 | 0.00 | 0.00 | ||
| 20260504195149 | 32 | 184 | 14.5 | 27.4 | 0.00 | 0.00 | 0.00 | ||
| 20260504194649 | 31 | 143 | 11.3 | 17.7 | 0.00 | 0.00 | 0.00 | ||
| 20260504194147 | 31 | 183 | 17.7 | 17.7 | 0.00 | 0.00 | 0.00 | ||
| 20260504193647 | 31 | 180 | 14.5 | 16.1 | 0.00 | 0.00 | 0.00 | ||
| 20260504193148 | 30 | 186 | 17.7 | 25.7 | 0.00 | 0.00 | 0.00 | ||
| 20260504192658 | 30 | 187 | 19.3 | 14.5 | 0.00 | 0.00 | 0.00 | ||
| 20260504192645 | 30 | 163 | 16.1 | 17.7 | 0.00 | 0.00 | 0.00 | ||
| 20260504192145 | 30 | 187 | 19.3 | 14.5 | 0.00 | 0.00 | 0.00 | ||
| 20260504191646 | 30 | 166 | 16.1 | 20.9 | 0.00 | 0.00 | 0.00 | ||
| 20260504191143 | 29 | 200 | 14.5 | 16.1 | 0.00 | 0.00 | 0.00 | ||
| 20260504190644 | 30 | 180 | 16.1 | 24.1 | 0.00 | 0.00 | 0.00 | ||
| 20260504190144 | 29 | 187 | 17.7 | 22.5 | 0.00 | 0.00 | 0.00 | ||
| 20260504185641 | 29 | 198 | 20.9 | 22.5 | 0.00 | 0.00 | 0.00 | ||
| 20260504185142 | 30 | 191 | 19.3 | 16.1 | 0.00 | 0.00 | 0.00 | ||
| 20260504184642 | 29 | 184 | 17.7 | 24.1 | 0.00 | 0.00 | 0.00 | ||
| 20260504184139 | 29 | 186 | 19.3 | 16.1 | 0.00 | 0.00 | 0.00 | ||
| 20260504183640 | 28 | 170 | 17.7 | 19.3 | 0.00 | 0.00 | 0.00 | ||
| 20260504183140 | 29 | 169 | 16.1 | 14.5 | 0.00 | 0.00 | 0.00 | ||
| 20260504182638 | 28 | 240 | 17.7 | 11.3 | 0.00 | 0.00 | 0.00 | ||
| 20260504182138 | 29 | 163 | 19.3 | 17.7 | 0.00 | 0.00 | 0.00 | ||
| 20260504181639 | 28 | 195 | 19.3 | 17.7 | 0.00 | 0.00 | 0.00 | ||
| 20260504181136 | 28 | 208 | 24.1 | 12.9 | 0.00 | 0.00 | 0.00 | ||
| 20260504180637 | 27 | 218 | 24.1 | 16.1 | 0.00 | 0.00 | 0.00 | ||
| 20260504180137 | 28 | 167 | 19.3 | 22.5 | 0.00 | 0.00 | 0.00 | ||
| 20260504175634 | 28 | 208 | 17.7 | 16.1 | 0.00 | 0.00 | 0.00 | ||
| 20260504175135 | 28 | 193 | 19.3 | 20.9 | 0.00 | 0.00 | 0.00 | ||
| 20260504174635 | 27 | 167 | 14.5 | 17.7 | 0.00 | 0.00 | 0.00 | ||
| 20260504174133 | 27 | 160 | 19.3 | 24.1 | 0.00 | 0.00 | 0.00 | ||
| 20260504173630 | 27 | 187 | 17.7 | 14.5 | 0.00 | 0.00 | 0.00 | ||
| 20260504173131 | 28 | 207 | 19.3 | 27.4 | 0.00 | 0.00 | 0.00 | ||
| 20260504172628 | 28 | 165 | 17.7 | 24.1 | 0.00 | 0.00 | 0.00 | ||
| 20260504172129 | 27 | 163 | 16.1 | 14.5 | 0.00 | 0.00 | 0.00 | ||
| 20260504171630 | 27 | 172 | 14.5 | 19.3 | 0.00 | 0.00 | 0.00 | ||
| 20260504171127 | 27 | 181 | 14.5 | 16.1 | 0.00 | 0.00 | 0.00 | ||
| 20260504170627 | 26 | 212 | 19.3 | 16.1 | 0.00 | 0.00 | 0.00 | ||
| 20260504170128 | 26 | 194 | 19.3 | 22.5 | 0.00 | 0.00 | 0.00 | ||
| 20260504160120 | 23 | 201 | 17.7 | 16.1 | 0.00 | 0.00 | 0.00 | ||
| 20260504151112 | 21 | 194 | 27.4 | 30.6 | 0.00 | 0.00 | 0.00 | ||
| 20260504150612 | 21 | 167 | 25.7 | 24.1 | 0.00 | 0.00 | 0.00 | ||
| 20260504150113 | 21 | 134 | 20.9 | 14.5 | 0.00 | 0.00 | 0.00 | ||
| 20260504141104 | 20 | 162 | 19.3 | 27.4 | 0.00 | 0.00 | 0.00 | ||
| 20260504140605 | 19 | 177 | 24.1 | 16.1 | 0.00 | 0.00 | 0.00 | ||
| 20260504140105 | 19 | 198 | 16.1 | 14.5 | 0.00 | 0.00 | 0.00 | ||
| 20260504130558 | 19 | 218 | 11.3 | 11.3 | 0.00 | 0.00 | 0.00 | ||
| 20260504110544 | 15 | 173 | 9.7 | 11.3 | 0.00 | 0.00 | 0.00 | ||
| 20260504100538 | 15 | 139 | 0.0 | 0.0 | 0.00 | 0.00 | 0.00 | ||
| 20260504081528 | 16 | 155 | 9.7 | 8.0 | 0.00 | 0.00 | 0.00 | ||
| 20260504081026 | 16 | 145 | 6.4 | 6.4 | 0.00 | 0.00 | 0.00 | ||
| 20260504080526 | 16 | 159 | 4.8 | 6.4 | 0.00 | 0.00 | 0.00 | ||
| 20260504050507 | 18 | 118 | 8.0 | 8.0 | 0.00 | 0.00 | 0.00 | ||
| 20260504050007 | 18 | 136 | 9.7 | 8.0 | 0.00 | 0.00 | 0.00 | ||
| 20260504045505 | 18 | 135 | 9.7 | 6.4 | 0.00 | 0.00 | 0.00 | ||
| 20260504045005 | 18 | 127 | 8.0 | 9.7 | 0.00 | 0.00 | 0.00 | ||
| 20260504044505 | 18 | 127 | 8.0 | 11.3 | 0.00 | 0.00 | 0.00 | ||
| 20260504044003 | 18 | 139 | 6.4 | 6.4 | 0.00 | 0.00 | 0.00 | ||
| 20260504043503 | 18 | 152 | 6.4 | 6.4 | 0.00 | 0.00 | 0.00 | ||
| 20260504043004 | 18 | 146 | 8.0 | 8.0 | 0.00 | 0.00 | 0.00 | ||
| 20260504042501 | 19 | 165 | 6.4 | 8.0 | 0.00 | 0.00 | 0.00 | ||
| 20260504042002 | 19 | 159 | 6.4 | 8.0 | 0.00 | 0.00 | 0.00 | ||
| 20260504041502 | 19 | 145 | 6.4 | 8.0 | 0.00 | 0.00 | 0.00 | ||
| 20260504041000 | 19 | 150 | 8.0 | 9.7 | 0.00 | 0.00 | 0.00 |